• In Italy
  • List of Countries
  • For 7 days
  • Water Temperature
  • Satellite Maps
  • Weather Map
  • Weather Widgets
  • user-avatar
    Login

    Hourly Weather Yulara

    Today, 18 November, Saturday

    Time Temperature Precipitation Wind Pressure Humidity
    00:00 +34°C° 0 mm 5 mps 716 mmHg 21%
    01:00 +33°C° 0 mm 5 mps 716 mmHg 22%
    02:00 +32°C° 0 mm 5 mps 715 mmHg 24%
    03:00 +30°C° 0 mm 5 mps 715 mmHg 26%
    04:00 +30°C° 0 mm 5 mps 715 mmHg 27%
    05:00 +29°C° 0 mm 5 mps 716 mmHg 28%
    06:00 +29°C° 0 mm 5 mps 716 mmHg 29%
    07:00 +32°C° 0 mm 4 mps 716 mmHg 26%
    08:00 +34°C° 0 mm 4 mps 716 mmHg 24%
    09:00 +36°C° 0 mm 4 mps 717 mmHg 21%
    10:00 +37°C° 0 mm 3 mps 716 mmHg 19%
    11:00 +38°C° 0 mm 3 mps 716 mmHg 18%
    12:00 +39°C° 0 mm 2 mps 716 mmHg 16%
    13:00 +40°C° 0 mm 2 mps 715 mmHg 15%
    14:00 +40°C° 0 mm 1 mps 715 mmHg 15%
    15:00 +40°C° 0 mm 1 mps 714 mmHg 14%
    16:00 +40°C° 0 mm 1 mps 714 mmHg 15%
    17:00 +40°C° 0 mm 1 mps 714 mmHg 15%
    18:00 +40°C° 0 mm 1 mps 714 mmHg 15%
    19:00 +39°C° 0 mm 1 mps 714 mmHg 16%
    20:00 +37°C° 0 mm 1 mps 714 mmHg 17%
    21:00 +37°C° 0 mm 1 mps 714 mmHg 18%
    22:00 +36°C° 0 mm 1 mps 714 mmHg 19%
    23:00 +36°C° 0 mm 1 mps 714 mmHg 20%

    Tomorrow, 19 November, Sunday

    Time Temperature Precipitation Wind Pressure Humidity
    00:00 +35°C° 0 mm 1 mps 714 mmHg 21%
    01:00 +36°C° 0 mm 2 mps 714 mmHg 21%
    02:00 +35°C° 0 mm 2 mps 714 mmHg 21%
    03:00 +35°C° 0 mm 3 mps 713 mmHg 21%
    04:00 +34°C° 0.1 mm 4 mps 714 mmHg 24%
    05:00 +33°C° 0.1 mm 5 mps 714 mmHg 27%
    06:00 +33°C° 0.1 mm 6 mps 714 mmHg 31%
    07:00 +34°C° 0 mm 5 mps 714 mmHg 29%
    08:00 +35°C° 0 mm 4 mps 714 mmHg 27%
    09:00 +36°C° 0 mm 4 mps 715 mmHg 25%
    10:00 +37°C° 0 mm 4 mps 714 mmHg 24%
    11:00 +39°C° 0 mm 5 mps 714 mmHg 23%
    12:00 +41°C° 0 mm 6 mps 714 mmHg 21%
    13:00 +41°C° 0 mm 6 mps 713 mmHg 21%
    14:00 +41°C° 0 mm 6 mps 713 mmHg 21%
    15:00 +41°C° 0 mm 5 mps 713 mmHg 20%
    16:00 +40°C° 0.2 mm 6 mps 713 mmHg 24%
    17:00 +38°C° 0.2 mm 7 mps 713 mmHg 27%
    18:00 +36°C° 0.2 mm 7 mps 713 mmHg 30%
    19:00 +35°C° 0.1 mm 5 mps 713 mmHg 32%
    20:00 +35°C° 0.1 mm 4 mps 713 mmHg 33%
    21:00 +34°C° 0.1 mm 2 mps 714 mmHg 34%
    22:00 +34°C° 0 mm 2 mps 714 mmHg 34%
    23:00 +32°C° 0 mm 2 mps 714 mmHg 35%

    Day after tomorrow, 20 November, Monday

    Time Temperature Precipitation Wind Pressure Humidity
    00:00 +33°C° 0 mm 3 mps 714 mmHg 35%
    01:00 +31°C° 0 mm 3 mps 714 mmHg 33%
    02:00 +30°C° 0 mm 4 mps 713 mmHg 31%
    03:00 +30°C° 0 mm 4 mps 713 mmHg 30%
    04:00 +29°C° 0 mm 4 mps 714 mmHg 32%
    05:00 +29°C° 0 mm 4 mps 714 mmHg 34%
    06:00 +28°C° 0 mm 4 mps 714 mmHg 36%
    07:00 +30°C° 0 mm 3 mps 715 mmHg 35%
    08:00 +33°C° 0 mm 3 mps 715 mmHg 33%
    09:00 +34°C° 0 mm 3 mps 715 mmHg 31%
    10:00 +36°C° 0 mm 3 mps 715 mmHg 25%
    11:00 +38°C° 0 mm 4 mps 715 mmHg 20%
    12:00 +40°C° 0 mm 4 mps 714 mmHg 14%
    13:00 +41°C° 0 mm 5 mps 714 mmHg 12%
    14:00 +43°C° 0 mm 7 mps 713 mmHg 11%
    15:00 +44°C° 0 mm 8 mps 712 mmHg 9%
    16:00 +43°C° 0 mm 8 mps 712 mmHg 10%
    17:00 +41°C° 0 mm 8 mps 712 mmHg 10%
    18:00 +40°C° 0 mm 8 mps 712 mmHg 11%
    19:00 +39°C° 0 mm 8 mps 713 mmHg 12%
    20:00 +38°C° 0 mm 7 mps 713 mmHg 13%
    21:00 +35°C° 0 mm 7 mps 714 mmHg 15%
    22:00 +34°C° 0 mm 7 mps 714 mmHg 17%
    23:00 +34°C° 0 mm 7 mps 714 mmHg 19%

    21 November, Tuesday

    Time Temperature Precipitation Wind Pressure Humidity
    00:00 +33°C° 0 mm 8 mps 714 mmHg 21%
    01:00 +32°C° 0 mm 7 mps 714 mmHg 22%
    02:00 +30°C° 0 mm 7 mps 713 mmHg 24%
    03:00 +30°C° 0 mm 7 mps 713 mmHg 25%
    04:00 +29°C° 0 mm 6 mps 713 mmHg 26%
    05:00 +29°C° 0 mm 5 mps 713 mmHg 27%
    06:00 +28°C° 0 mm 4 mps 713 mmHg 29%
    07:00 +30°C° 0 mm 5 mps 714 mmHg 25%
    08:00 +33°C° 0 mm 5 mps 714 mmHg 22%
    09:00 +35°C° 0 mm 5 mps 714 mmHg 18%
    10:00 +38°C° 0 mm 6 mps 714 mmHg 16%
    11:00 +39°C° 0 mm 6 mps 714 mmHg 13%
    12:00 +41°C° 0 mm 7 mps 714 mmHg 11%
    13:00 +41°C° 0 mm 7 mps 713 mmHg 10%
    14:00 +43°C° 0 mm 8 mps 712 mmHg 10%
    15:00 +43°C° 0 mm 9 mps 712 mmHg 9%
    16:00 +41°C° 0 mm 8 mps 712 mmHg 9%
    17:00 +41°C° 0 mm 8 mps 712 mmHg 10%
    18:00 +40°C° 0 mm 8 mps 712 mmHg 10%
    19:00 +39°C° 0 mm 7 mps 713 mmHg 11%
    20:00 +36°C° 0 mm 6 mps 713 mmHg 12%
    21:00 +35°C° 0 mm 5 mps 713 mmHg 13%
    22:00 +34°C° 0 mm 5 mps 713 mmHg 14%
    23:00 +33°C° 0 mm 5 mps 713 mmHg 15%

    22 November, Wednesday

    Time Temperature Precipitation Wind Pressure Humidity
    00:00 +32°C° 0 mm 5 mps 713 mmHg 16%
    01:00 +32°C° 0 mm 5 mps 712 mmHg 18%
    02:00 +30°C° 0 mm 6 mps 712 mmHg 20%
    03:00 +29°C° 0 mm 6 mps 712 mmHg 21%
    04:00 +29°C° 0 mm 5 mps 712 mmHg 26%
    05:00 +29°C° 0 mm 4 mps 712 mmHg 31%
    06:00 +28°C° 0 mm 3 mps 713 mmHg 37%
    07:00 +30°C° 0 mm 4 mps 713 mmHg 34%
    08:00 +33°C° 0 mm 4 mps 714 mmHg 31%
    09:00 +35°C° 0 mm 5 mps 714 mmHg 28%
    10:00 +36°C° 0 mm 4 mps 714 mmHg 25%
    11:00 +37°C° 0 mm 4 mps 714 mmHg 21%
    12:00 +38°C° 0 mm 4 mps 713 mmHg 18%
    13:00 +40°C° 0 mm 4 mps 713 mmHg 17%
    14:00 +40°C° 0 mm 5 mps 712 mmHg 16%
    15:00 +40°C° 0 mm 5 mps 712 mmHg 14%
    16:00 +40°C° 0 mm 5 mps 712 mmHg 16%
    17:00 +39°C° 0 mm 6 mps 712 mmHg 17%
    18:00 +38°C° 0 mm 6 mps 712 mmHg 18%
    19:00 +36°C° 0 mm 7 mps 713 mmHg 22%
    20:00 +35°C° 0 mm 8 mps 713 mmHg 26%
    21:00 +34°C° 0 mm 9 mps 714 mmHg 30%
    22:00 +32°C° 0 mm 10 mps 714 mmHg 36%
    23:00 +29°C° 0 mm 11 mps 714 mmHg 42%

    23 November, Thursday

    Time Temperature Precipitation Wind Pressure Humidity
    00:00 +27°C° 0 mm 11 mps 714 mmHg 47%
    01:00 +26°C° 0 mm 11 mps 714 mmHg 50%
    02:00 +24°C° 0 mm 10 mps 714 mmHg 53%
    03:00 +24°C° 0 mm 9 mps 714 mmHg 56%
    04:00 +23°C° 0 mm 9 mps 714 mmHg 57%
    05:00 +23°C° 0 mm 9 mps 715 mmHg 58%
    06:00 +22°C° 0 mm 8 mps 715 mmHg 58%
    07:00 +24°C° 0 mm 8 mps 716 mmHg 54%
    08:00 +26°C° 0 mm 7 mps 716 mmHg 49%
    09:00 +28°C° 0 mm 7 mps 716 mmHg 44%
    10:00 +30°C° 0 mm 6 mps 716 mmHg 40%
    11:00 +32°C° 0 mm 5 mps 715 mmHg 36%
    12:00 +34°C° 0 mm 5 mps 715 mmHg 32%
    13:00 +34°C° 0 mm 5 mps 714 mmHg 32%
    14:00 +34°C° 0 mm 5 mps 714 mmHg 31%
    15:00 +34°C° 0 mm 5 mps 713 mmHg 31%
    16:00 +33°C° 0 mm 5 mps 714 mmHg 32%
    17:00 +33°C° 0 mm 6 mps 714 mmHg 32%
    18:00 +32°C° 0 mm 7 mps 714 mmHg 33%
    19:00 +32°C° 0 mm 7 mps 715 mmHg 34%
    20:00 +30°C° 0 mm 7 mps 715 mmHg 35%
    21:00 +29°C° 0 mm 7 mps 715 mmHg 36%
    22:00 +29°C° 0 mm 7 mps 715 mmHg 35%
    23:00 +28°C° 0 mm 7 mps 715 mmHg 35%
    Show more